Location: Home
(42.5358°N, 72.7383°W)
Time: 12:50:38
(UTC-05:00)

Tiros 1 - Pass Details

Date: 01 December 2021
Orbit: 629 x 664 km, 48.4° (Epoch: 26 January)

Event Time Altitude Azimuth Distance (km) Brightness Sun altitude
Rises 01:26:04 0° 295° (WNW) 2,970 - -59.7°
Reaches altitude 10° 01:28:27 10° 290° (WNW) 2,062 - -59.4°
Maximum altitude 01:33:04 52° 215° (SW) 820 - -58.6°
Drops below altitude 10° 01:37:42 10° 140° (SE) 2,069 - -57.9°
Sets 01:40:05 0° 135° (SE) 2,981 - -57.5°
